HOOPOE (42718 NORAD) Tracking and Keplerian Element Data

This shows tracking and keplerian element data for the satellite.

Feedback or suggestion? Click here.




ElementValue
Catalog42718
NameHOOPOE
Epoch Orbit8434
Epoch Day315.90530632
Epoch Year2018
RAAN307.1313
Inclination51.6248
Eccentricity0.0006342
Argument of Perigee71.0634
Mean Anonmoly289.106
Mean Motion15.92841485
Decay Rate0.00189531
L11 42718U 98067LZ 18315.90530632 .00189531 24702-4 54105-3 0 9992
L22 42718 51.6248 307.1313 0006342 71.0634 289.1060 15.92841485 84346

Live tracking and technical data element details for HOOPOE (NORAD 42718). HOOPOE can be tracked NOW for your location showing map with azimuth and elevation plus other details from your city location.

Track the satellite on the map from your city or location and see movement details for azimuth, elevation, latitude, longitude, range, height, and movement on the map or in text.







IsCatalogInMostPopularTable: catalog: 42718, numindb: 149
Update: records affected: 1



GetName: 42718 HOOPOE

Hit Count: updated at: Mon, 12 Nov 2018 17:47:46 GMT